This is the latest recevied weather packets stored in our database for station/object F6DEV-13. If no packets are shown the sender has not sent any weather packets the latest 1 day(s).
| Time | Temp. | Humidity | Pressure | Rain* | Wind** | Luminosity | Snow |
|---|---|---|---|---|---|---|---|
| 1777997634 | 11.11° C | 86% | 1011 hPa | 1.02 mm | 1.34 m/s, 207° | - | - |
| 1777997366 | 11.11° C | 86% | 1011 hPa | 1.02 mm | 1.34 m/s, 196° | - | - |
| 1777997334 | 11.11° C | 86% | 1011 hPa | 1.02 mm | 1.34 m/s, 196° | - | - |
| 1777997034 | 11.11° C | 86% | 1011 hPa | 1.02 mm | 1.34 m/s, 188° | - | - |
| 1777996778 | 11.11° C | 86% | 1011 hPa | 2.03 mm | 2.68 m/s, 193° | - | - |
| 1777996734 | 11.11° C | 86% | 1011 hPa | 2.03 mm | 2.68 m/s, 193° | - | - |
| 1777996434 | 11.11° C | 87% | 1011 hPa | 2.03 mm | 1.34 m/s, 245° | - | - |
| 1777996134 | 11.67° C | 88% | 1011 hPa | 2.03 mm | 1.34 m/s, 233° | - | - |
| 1777995834 | 11.67° C | 88% | 1011 hPa | 2.03 mm | 2.24 m/s, 213° | - | - |
| 1777995533 | 11.67° C | 88% | 1011 hPa | 2.03 mm | 2.24 m/s, 189° | - | - |
| 1777995233 | 11.11° C | 88% | 1011 hPa | 2.03 mm | 1.34 m/s, 228° | - | - |
| 1777994933 | 11.11° C | 89% | 1011 hPa | 3.05 mm | 1.34 m/s, 283° | - | - |
| 1777994633 | 11.11° C | 89% | 1011 hPa | 3.05 mm | 2.24 m/s, 221° | - | - |
| 1777994394 | 10.56° C | 88% | 1011 hPa | 4.06 mm | 1.34 m/s, 243° | - | - |
| 1777994333 | 10.56° C | 88% | 1011 hPa | 4.06 mm | 1.34 m/s, 243° | - | - |
| 1777994033 | 10.56° C | 87% | 1011 hPa | 3.05 mm | 2.68 m/s, 268° | - | - |
| 1777993733 | 10° C | 86% | 1011 hPa | 3.05 mm | 2.24 m/s, 266° | - | - |
| 1777993464 | 10° C | 86% | 1011 hPa | 3.05 mm | 1.34 m/s, 220° | - | - |
| 1777993433 | 10° C | 86% | 1011 hPa | 3.05 mm | 1.34 m/s, 220° | - | - |
| 1777993133 | 10° C | 86% | 1011 hPa | 2.03 mm | 2.24 m/s, 253° | - | - |
| 1777992840 | 10° C | 85% | 1011 hPa | 2.03 mm | 1.34 m/s, 229° | - | - |
| 1777992803 | 10° C | 85% | 1011 hPa | 2.03 mm | 1.34 m/s, 229° | - | - |
| 1777992503 | 10° C | 85% | 1011 hPa | 2.03 mm | 3.13 m/s, 264° | - | - |
| 1777992203 | 10° C | 84% | 1011 hPa | 2.03 mm | 2.24 m/s, 272° | - | - |
| 1777991873 | 10° C | 83% | 1010 hPa | 2.03 mm | 3.58 m/s, 284° | - | - |
* Rain latest hour (hover to see other rain measurements)
** Current wind speed in m/s (hover to see current wind gust speed)